^^
Meteo Knjazevac Station Historical Data
Daily Summary for January 25, 2021 Units:  Metric    English   Both
Daily Weekly Monthly Yearly Custom
  High: Low: Average:
Temperature: 23.1 °C 16.6 °C 18.5 °C
Dew Point: 18 °C 15.1 °C 16.1 °C
Humidity: 93% 73% 86%
Wind Speed: 9.7km/h 0km/h 3.4km/h
Wind Gust: 17.7km/h - -
Wind- - SSW
Pressure: 1018.2 hPa 1016.1 hPa -
Precipitation: 0.25 mm    
Historical Graphs
 
 
Tabular Data for January 25, 2021
Time Temperature Dew Point Pressure Wind Wind Speed Wind Gust Humidity Rainfall Rate (Hourly) solar Conditions
00:00 18.6 °C 15.8 °C 1018.2 hPa WSW 3.2 km/h 6.4 km/h 84% 0 mm 0 W/m2
00:10 18.6 °C 15.8 °C 1018.2 hPa WSW 3.2 km/h 8 km/h 84% 0 mm 0 W/m2
00:20 18.5 °C 15.9 °C 1018.2 hPa WSW 1.6 km/h 8 km/h 85% 0 mm 0 W/m2
00:30 18.4 °C 15.8 °C 1018.2 hPa SW 1.6 km/h 4.8 km/h 85% 0 mm 0 W/m2
00:40 18.3 °C 15.8 °C 1018.2 hPa SSE 1.6 km/h 3.2 km/h 85% 0 mm 0 W/m2
00:50 18.2 °C 15.6 °C 1018.2 hPa SSW 1.6 km/h 4.8 km/h 85% 0 mm 0 W/m2
01:00 18.1 °C 15.6 °C 1018.2 hPa SSW 1.6 km/h 3.2 km/h 85% 0 mm 0 W/m2
01:10 17.9 °C 15.5 °C 1018.2 hPa WSW 3.2 km/h 4.8 km/h 86% 0 mm 0 W/m2
01:20 17.8 °C 15.4 °C 1018.2 hPa WSW 1.6 km/h 4.8 km/h 86% 0 mm 0 W/m2
01:30 17.7 °C 15.7 °C 1017.8 hPa SW 3.2 km/h 4.8 km/h 88% 0 mm 0 W/m2
01:40 17.8 °C 15.6 °C 1017.8 hPa Calm   4.8 km/h 87% 0 mm 0 W/m2
01:50 17.8 °C 15.6 °C 1017.8 hPa Calm   3.2 km/h 87% 0 mm 0 W/m2
02:00 17.9 °C 15.9 °C 1017.8 hPa Calm   8 km/h 88% 0 mm 0 W/m2
02:10 17.9 °C 15.9 °C 1017.8 hPa SSE 3.2 km/h 6.4 km/h 88% 0 mm 0 W/m2
02:20 17.9 °C 15.9 °C 1017.5 hPa SE 3.2 km/h 8 km/h 88% 0 mm 0 W/m2
02:30 17.8 °C 15.4 °C 1017.5 hPa West 1.6 km/h 4.8 km/h 86% 0 mm 0 W/m2
02:40 17.7 °C 15.7 °C 1017.5 hPa West 3.2 km/h 6.4 km/h 88% 0 mm 0 W/m2
02:50 17.5 °C 15.5 °C 1017.5 hPa West 1.6 km/h 4.8 km/h 88% 0 mm 0 W/m2
03:00 17.4 °C 15.4 °C 1017.5 hPa Calm   4.8 km/h 88% 0 mm 0 W/m2
03:10 17.4 °C 15.4 °C 1017.2 hPa West 1.6 km/h 4.8 km/h 88% 0 mm 0 W/m2
03:20 17.3 °C 15.3 °C 1017.2 hPa Calm   3.2 km/h 88% 0 mm 0 W/m2
03:30 17.3 °C 15.3 °C 1017.2 hPa Calm   3.2 km/h 88% 0 mm 0 W/m2
03:40 17.2 °C 15.2 °C 1017.2 hPa Calm     88% 0 mm 0 W/m2
03:50 17.1 °C 15.1 °C 1017.5 hPa NW 1.6 km/h 4.8 km/h 88% 0 mm 0 W/m2
04:00 17 °C 15.2 °C 1017.5 hPa West 3.2 km/h 8 km/h 89% 0 mm 0 W/m2
04:10 17 °C 15.2 °C 1017.8 hPa Calm   6.4 km/h 89% 0 mm 0 W/m2
04:20 17 °C 15.3 °C 1017.8 hPa SW 3.2 km/h 4.8 km/h 90% 0 mm 0 W/m2
04:30 17 °C 15.3 °C 1017.8 hPa SSW 1.6 km/h 6.4 km/h 90% 0 mm 0 W/m2
04:40 16.9 °C 15.2 °C 1017.5 hPa ENE 4.8 km/h 8 km/h 90% 0 mm 0 W/m2
04:50 16.9 °C 15.2 °C 1017.2 hPa East 3.2 km/h 11.3 km/h 90% 0 mm 0 W/m2
05:00 16.9 °C 15.2 °C 1017.2 hPa SE 4.8 km/h 9.7 km/h 90% 0 mm 0 W/m2
05:10 16.8 °C 15.2 °C 1017.2 hPa South 3.2 km/h 8 km/h 90% 0 mm 0 W/m2
05:20 16.6 °C 15.2 °C 1017.5 hPa SSW 4.8 km/h 9.7 km/h 91% 0 mm 0 W/m2
05:30 16.6 °C 15.1 °C 1017.5 hPa SSW 3.2 km/h 9.7 km/h 91% 0 mm 0 W/m2
05:40 16.6 °C 15.1 °C 1017.5 hPa WSW 1.6 km/h 4.8 km/h 91% 0 mm 0 W/m2
05:50 16.6 °C 15.4 °C 1017.2 hPa SSW 3.2 km/h 9.7 km/h 93% 0 mm 4 W/m2
06:00 16.7 °C 15.6 °C 1017.2 hPa SSE 3.2 km/h 9.7 km/h 93% 0 mm 13 W/m2
06:10 16.8 °C 15.7 °C 1017.2 hPa SSE 3.2 km/h 6.4 km/h 93% 0 mm 26 W/m2
06:20 16.8 °C 15.7 °C 1017.2 hPa SSW 3.2 km/h 4.8 km/h 93% 0 mm 36 W/m2
06:30 16.9 °C 15.8 °C 1017.5 hPa SW 3.2 km/h 9.7 km/h 93% 0 mm 21 W/m2
06:40 17.1 °C 15.9 °C 1017.5 hPa SW 3.2 km/h 8 km/h 93% 0 mm 30 W/m2
06:50 17.2 °C 16.1 °C 1017.5 hPa SW 3.2 km/h 8 km/h 93% 0 mm 32 W/m2
07:00 17.4 °C 15.9 °C 1017.5 hPa SW 4.8 km/h 11.3 km/h 91% 0 mm 33 W/m2
07:10 17.5 °C 16 °C 1017.5 hPa SW 4.8 km/h 12.9 km/h 91% 0 mm 31 W/m2
07:20 17.6 °C 15.9 °C 1017.5 hPa SW 4.8 km/h 9.7 km/h 90% 0 mm 26 W/m2
07:30 17.7 °C 16.1 °C 1017.5 hPa SW 4.8 km/h 6.4 km/h 90% 0 mm 37 W/m2
07:40 17.8 °C 15.9 °C 1017.5 hPa SW 3.2 km/h 9.7 km/h 89% 0 mm 76 W/m2
07:50 17.9 °C 16.1 °C 1017.5 hPa SW 4.8 km/h 11.3 km/h 89% 0 mm 83 W/m2
08:00 18.1 °C 16.3 °C 1017.5 hPa SSW 4.8 km/h 11.3 km/h 89% 0 mm 81 W/m2
08:10 18.3 °C 16.3 °C 1017.5 hPa SW 4.8 km/h 9.7 km/h 88% 0 mm 83 W/m2
08:20 18.5 °C 16.1 °C 1017.8 hPa SSW 4.8 km/h 12.9 km/h 86% 0 mm 177 W/m2
08:30 18.8 °C 16.4 °C 1017.5 hPa SW 8 km/h 11.3 km/h 86% 0 mm 292 W/m2
08:40 19.1 °C 16.5 °C 1017.8 hPa SSW 3.2 km/h 11.3 km/h 85% 0 mm 145 W/m2
08:50 19.3 °C 16.5 °C 1017.8 hPa South 3.2 km/h 9.7 km/h 84% 0 mm 174 W/m2
09:00 19.4 °C 16.6 °C 1017.5 hPa South 3.2 km/h 9.7 km/h 84% 0 mm 248 W/m2
09:10 19.6 °C 16.6 °C 1017.5 hPa South 3.2 km/h 11.3 km/h 83% 0 mm 168 W/m2
09:20 19.7 °C 16.6 °C 1017.5 hPa South 1.6 km/h 9.7 km/h 82% 0 mm 180 W/m2
09:30 19.9 °C 16.5 °C 1017.8 hPa SE 3.2 km/h 8 km/h 81% 0 mm 182 W/m2
09:40 19.9 °C 16.6 °C 1017.8 hPa SSE 4.8 km/h 9.7 km/h 81% 0 mm 50 W/m2
09:50 19.9 °C 16.6 °C 1017.8 hPa SSW 1.6 km/h 6.4 km/h 81% 0 mm 87 W/m2
10:00 19.9 °C 16.6 °C 1017.8 hPa SSW 3.2 km/h 6.4 km/h 81% 0 mm 90 W/m2
10:10 20 °C 16.6 °C 1017.5 hPa SW 1.6 km/h 4.8 km/h 81% 0 mm 230 W/m2
10:20 20.3 °C 16.9 °C 1017.8 hPa SSW 1.6 km/h 6.4 km/h 81% 0 mm 288 W/m2
10:30 20.6 °C 16.8 °C 1017.5 hPa SSE 1.6 km/h 11.3 km/h 79% 0 mm 370 W/m2
10:40 20.8 °C 16.8 °C 1017.2 hPa SSE 1.6 km/h 11.3 km/h 78% 0 mm 200 W/m2
10:50 20.8 °C 17 °C 1017.2 hPa East 8 km/h 11.3 km/h 79% 0 mm 141 W/m2
11:00 20.7 °C 17.1 °C 1017.2 hPa ESE 8 km/h 12.9 km/h 80% 0 mm 193 W/m2
11:10 20.6 °C 17.2 °C 1017.2 hPa SE 4.8 km/h 14.5 km/h 81% 0 mm 233 W/m2
11:20 20.5 °C 17.1 °C 1017.2 hPa SE 8 km/h 12.9 km/h 81% 0 mm 239 W/m2
11:30 20.5 °C 17.1 °C 1016.8 hPa ESE 8 km/h 14.5 km/h 81% 0 mm 181 W/m2
11:40 20.6 °C 17.2 °C 1016.5 hPa ESE 9.7 km/h 17.7 km/h 81% 0 mm 250 W/m2
11:50 20.5 °C 17.1 °C 1016.8 hPa SE 9.7 km/h 17.7 km/h 81% 0 mm 278 W/m2
12:00 20.6 °C 17.2 °C 1016.5 hPa SSE 4.8 km/h 16.1 km/h 81% 0 mm 315 W/m2
12:10 21 °C 17.4 °C 1016.5 hPa SE 8 km/h 16.1 km/h 80% 0 mm 482 W/m2
12:20 21.5 °C 17.7 °C 1016.5 hPa SE 4.8 km/h 12.9 km/h 79% 0 mm 530 W/m2
12:30 22.1 °C 17.8 °C 1016.5 hPa SE 3.2 km/h 12.9 km/h 77% 0 mm 554 W/m2
12:40 22.6 °C 17.9 °C 1016.5 hPa SW 1.6 km/h 9.7 km/h 75% 0 mm 421 W/m2
12:50 23.1 °C 18 °C 1016.1 hPa West 3.2 km/h 11.3 km/h 73% 0 mm 548 W/m2
Knjazevac, Serbia
Compliments of Weather Underground - 2 mb